Location: Palmerston North
(40.3500°S, 175.6170°E)
Time: 23:58:56
(UTC+13:00)

Cosmos 540 Rocket - Pass Details

Date: 24 January 2019
Orbit: 741 x 753 km, 74.1° (Epoch: 17 February)

Event Time Altitude Azimuth Distance (km) Brightness Sun altitude
Rises 22:08:53 0° 194° (SSW) 3,242 7.7 -14.3°
Reaches altitude 10° 22:11:22 10° 188° (S) 2,308 6.7 -14.7°
Maximum altitude 22:16:26 49° 113° (ESE) 983 3.9 -15.4°
Enters shadow 22:19:07 26° 52° (NE) 1,476 4.4 -15.8°
